| time (UTC) | temp F | wind direction | speed MPH | gust MPH | rain 1hr in | rain 24hr in | rain mn in | humidity % | barometer mb |
| 20260506130018 | 78 | 216 | 6.0 | 12.0 | 0.00 | 0.00 | 0.00 | 42 | 1006.8 |
| 20260506125516 | 78 | 216 | 6.0 | 13.0 | 0.00 | 0.00 | 0.00 | 41 | 1006.9 |
| 20260506125035 | 78 | 209 | 6.0 | 13.0 | 0.00 | 0.00 | 0.00 | 41 | 1006.8 |
| 20260506124535 | 78 | 200 | 5.0 | 10.0 | 0.00 | 0.00 | 0.00 | 41 | 1006.8 |
| 20260506124032 | 79 | 225 | 6.0 | 13.0 | 0.00 | 0.00 | 0.00 | 40 | 1006.8 |
| 20260506123531 | 79 | 210 | 4.0 | 9.0 | 0.00 | 0.00 | 0.00 | 40 | 1006.8 |
| 20260506123029 | 77 | 213 | 5.0 | 10.0 | 0.00 | 0.00 | 0.00 | 42 | 1006.9 |
| 20260506122528 | 78 | 227 | 6.0 | 15.0 | 0.00 | 0.00 | 0.00 | 41 | 1006.9 |
| 20260506122026 | 78 | 223 | 5.0 | 14.0 | 0.00 | 0.00 | 0.00 | 40 | 1006.8 |
| 20260506121526 | 78 | 211 | 7.0 | 15.0 | 0.00 | 0.00 | 0.00 | 41 | 1006.6 |
| 20260506121024 | 79 | 198 | 6.0 | 15.0 | 0.00 | 0.00 | 0.00 | 40 | 1006.7 |
| 20260506120522 | 79 | 223 | 5.0 | 11.0 | 0.00 | 0.00 | 0.00 | 40 | 1006.8 |
| 20260506120021 | 79 | 209 | 5.0 | 12.0 | 0.00 | 0.00 | 0.00 | 40 | 1006.7 |
| 20260506115518 | 78 | 208 | 5.0 | 11.0 | 0.00 | 0.00 | 0.00 | 41 | 1006.5 |
| 20260506115017 | 79 | 215 | 7.0 | 13.0 | 0.00 | 0.00 | 0.00 | 39 | 1006.7 |
| 20260506114517 | 77 | 205 | 5.0 | 9.0 | 0.00 | 0.00 | 0.00 | 40 | 1006.7 |
| 20260506114034 | 78 | 210 | 7.0 | 13.0 | 0.00 | 0.00 | 0.00 | 39 | 1006.6 |
| 20260506113533 | 78 | 197 | 7.0 | 18.0 | 0.00 | 0.00 | 0.00 | 39 | 1006.6 |
| 20260506113031 | 78 | 189 | 7.0 | 14.0 | 0.00 | 0.00 | 0.00 | 38 | 1006.6 |
| 20260506112530 | 78 | 194 | 8.0 | 19.0 | 0.00 | 0.00 | 0.00 | 38 | 1006.5 |
| 20260506112029 | 78 | 223 | 4.0 | 8.0 | 0.00 | 0.00 | 0.00 | 37 | 1006.6 |
| 20260506111527 | 79 | 205 | 6.0 | 12.0 | 0.00 | 0.00 | 0.00 | 37 | 1006.6 |
| 20260506111026 | 78 | 201 | 7.0 | 15.0 | 0.00 | 0.00 | 0.00 | 37 | 1006.5 |
| 20260506110524 | 79 | 195 | 5.0 | 11.0 | 0.00 | 0.00 | 0.00 | 37 | 1006.6 |
| 20260506110023 | 78 | 184 | 5.0 | 9.0 | 0.00 | 0.00 | 0.00 | 37 | 1006.5 |
| 20260506105522 | 78 | 197 | 5.0 | 11.0 | 0.00 | 0.00 | 0.00 | 37 | 1006.6 |
| 20260506105020 | 78 | 197 | 7.0 | 14.0 | 0.00 | 0.00 | 0.00 | 37 | 1006.5 |
| 20260506104518 | 77 | 201 | 4.0 | 8.0 | 0.00 | 0.00 | 0.00 | 38 | 1006.5 |
| 20260506104016 | 77 | 212 | 3.0 | 6.0 | 0.00 | 0.00 | 0.00 | 38 | 1006.7 |
| 20260506103535 | 78 | 193 | 5.0 | 12.0 | 0.00 | 0.00 | 0.00 | 37 | 1006.7 |
| 20260506103034 | 77 | 211 | 6.0 | 14.0 | 0.00 | 0.00 | 0.00 | 37 | 1006.7 |
| 20260506102532 | 78 | 199 | 4.0 | 13.0 | 0.00 | 0.00 | 0.00 | 37 | 1006.6 |
| 20260506102031 | 77 | 189 | 4.0 | 7.0 | 0.00 | 0.00 | 0.00 | 37 | 1006.7 |
| 20260506101529 | 77 | 187 | 6.0 | 13.0 | 0.00 | 0.00 | 0.00 | 37 | 1006.8 |
| 20260506101028 | 77 | 204 | 4.0 | 8.0 | 0.00 | 0.00 | 0.00 | 37 | 1006.7 |
| 20260506100526 | 77 | 201 | 4.0 | 11.0 | 0.00 | 0.00 | 0.00 | 37 | 1006.7 |
| 20260506100026 | 76 | 192 | 6.0 | 12.0 | 0.00 | 0.00 | 0.00 | 37 | 1006.9 |
| 20260506095524 | 77 | 197 | 6.0 | 12.0 | 0.00 | 0.00 | 0.00 | 36 | 1006.9 |
| 20260506095023 | 77 | 191 | 5.0 | 10.0 | 0.00 | 0.00 | 0.00 | 36 | 1006.9 |
| 20260506094520 | 77 | 209 | 6.0 | 19.0 | 0.00 | 0.00 | 0.00 | 36 | 1006.8 |
| 20260506094019 | 77 | 205 | 6.0 | 13.0 | 0.00 | 0.00 | 0.00 | 36 | 1006.7 |
| 20260506093517 | 77 | 209 | 5.0 | 10.0 | 0.00 | 0.00 | 0.00 | 36 | 1006.7 |
| 20260506093016 | 75 | 187 | 4.0 | 8.0 | 0.00 | 0.00 | 0.00 | 38 | 1006.8 |
| 20260506092534 | 75 | 183 | 5.0 | 13.0 | 0.00 | 0.00 | 0.00 | 38 | 1006.8 |
| 20260506092033 | 76 | 185 | 5.0 | 11.0 | 0.00 | 0.00 | 0.00 | 38 | 1006.8 |
| 20260506091531 | 75 | 211 | 5.0 | 10.0 | 0.00 | 0.00 | 0.00 | 38 | 1006.8 |
| 20260506091030 | 75 | 192 | 5.0 | 12.0 | 0.00 | 0.00 | 0.00 | 38 | 1006.6 |
| 20260506090528 | 75 | 204 | 4.0 | 12.0 | 0.00 | 0.00 | 0.00 | 39 | 1006.7 |
| 20260506090027 | 74 | 161 | 4.0 | 11.0 | 0.00 | 0.00 | 0.00 | 39 | 1006.8 |
| 20260506085526 | 75 | 176 | 5.0 | 9.0 | 0.00 | 0.00 | 0.00 | 39 | 1006.7 |
| 20260506085024 | 75 | 192 | 4.0 | 12.0 | 0.00 | 0.00 | 0.00 | 38 | 1006.6 |
| 20260506084523 | 74 | 217 | 3.0 | 5.0 | 0.00 | 0.00 | 0.00 | 39 | 1006.6 |
| 20260506084022 | 74 | 198 | 3.0 | 6.0 | 0.00 | 0.00 | 0.00 | 39 | 1006.6 |
| 20260506083520 | 74 | 188 | 4.0 | 10.0 | 0.00 | 0.00 | 0.00 | 40 | 1006.6 |
| 20260506083019 | 74 | 184 | 5.0 | 8.0 | 0.00 | 0.00 | 0.00 | 40 | 1006.8 |
| 20260506082517 | 73 | 171 | 4.0 | 9.0 | 0.00 | 0.00 | 0.00 | 40 | 1006.8 |
| 20260506082015 | 73 | 209 | 4.0 | 9.0 | 0.00 | 0.00 | 0.00 | 40 | 1006.8 |
| 20260506081535 | 72 | 205 | 6.0 | 13.0 | 0.00 | 0.00 | 0.00 | 41 | 1006.8 |
| 20260506081032 | 72 | 187 | 7.0 | 13.0 | 0.00 | 0.00 | 0.00 | 41 | 1006.9 |
| 20260506080531 | 72 | 199 | 5.0 | 9.0 | 0.00 | 0.00 | 0.00 | 40 | 1006.9 |
| 20260506073522 | 71 | 208 | 5.0 | 12.0 | 0.00 | 0.00 | 0.00 | 41 | 1007.1 |
| 20260506073022 | 71 | 193 | 6.0 | 10.0 | 0.00 | 0.00 | 0.00 | 42 | 1007.0 |
| 20260506072520 | 71 | 209 | 5.0 | 10.0 | 0.00 | 0.00 | 0.00 | 41 | 1007.0 |
| 20260506072017 | 70 | 207 | 5.0 | 10.0 | 0.00 | 0.00 | 0.00 | 42 | 1006.9 |
| 20260506071516 | 70 | 227 | 5.0 | 11.0 | 0.00 | 0.00 | 0.00 | 42 | 1007.0 |
| 20260506071035 | 70 | 191 | 5.0 | 10.0 | 0.00 | 0.00 | 0.00 | 42 | 1007.0 |
| 20260506070533 | 69 | 185 | 6.0 | 11.0 | 0.00 | 0.00 | 0.00 | 43 | 1007.0 |
| 20260506062021 | 67 | 189 | 4.0 | 9.0 | 0.00 | 0.00 | 0.00 | 45 | 1007.0 |
| 20260506061519 | 67 | 203 | 5.0 | 9.0 | 0.00 | 0.00 | 0.00 | 45 | 1007.2 |
| 20260506061016 | 66 | 195 | 4.0 | 7.0 | 0.00 | 0.00 | 0.00 | 46 | 1007.2 |
| 20260506060535 | 65 | 204 | 4.0 | 8.0 | 0.00 | 0.00 | 0.00 | 45 | 1007.2 |
| 20260506051019 | 62 | 140 | 3.0 | 6.0 | 0.00 | 0.00 | 0.00 | 50 | 1007.3 |
| 20260506050517 | 62 | 158 | 3.0 | 5.0 | 0.00 | 0.00 | 0.00 | 50 | 1007.5 |
| 20260506045034 | 61 | 161 | 3.0 | 6.0 | 0.00 | 0.00 | 0.00 | 51 | 1007.7 |
| 20260506044533 | 62 | 139 | 1.0 | 3.0 | 0.00 | 0.00 | 0.00 | 52 | 1007.7 |
| 20260506044030 | 61 | 142 | 1.0 | 2.0 | 0.00 | 0.00 | 0.00 | 52 | 1007.7 |
| 20260506043529 | 61 | 155 | 2.0 | 4.0 | 0.00 | 0.00 | 0.00 | 52 | 1007.6 |
| 20260506043027 | 62 | 117 | 2.0 | 3.0 | 0.00 | 0.00 | 0.00 | 51 | 1007.6 |
| 20260506042526 | 61 | 115 | 1.0 | 2.0 | 0.00 | 0.00 | 0.00 | 53 | 1007.6 |
| 20260506042024 | 60 | 113 | 1.0 | 2.0 | 0.00 | 0.00 | 0.00 | 55 | 1007.6 |
| 20260506041523 | 59 | 113 | 1.0 | 2.0 | 0.00 | 0.00 | 0.00 | 56 | 1007.7 |
| 20260506041021 | 58 | 157 | 1.0 | 3.0 | 0.00 | 0.00 | 0.00 | 56 | 1007.8 |
| 20260506040520 | 57 | 167 | 2.0 | 4.0 | 0.00 | 0.00 | 0.00 | 57 | 1007.7 |
| 20260506040018 | 57 | 182 | 2.0 | 4.0 | 0.00 | 0.00 | 0.00 | 58 | 1007.7 |
| 20260506035517 | 55 | 183 | 2.0 | 6.0 | 0.00 | 0.00 | 0.00 | 61 | 1007.7 |
| 20260506035036 | 53 | 152 | 1.0 | 3.0 | 0.00 | 0.00 | 0.00 | 67 | 1007.7 |
| 20260506034534 | 51 | 151 | 1.0 | 2.0 | 0.00 | 0.00 | 0.00 | 72 | 1007.7 |
| 20260506034032 | 51 | 136 | 1.0 | 2.0 | 0.00 | 0.00 | 0.00 | 72 | 1007.5 |
| 20260506033531 | 52 | 128 | 1.0 | 2.0 | 0.00 | 0.00 | 0.00 | 71 | 1007.6 |
| 20260506033031 | 51 | 111 | 1.0 | 4.0 | 0.00 | 0.00 | 0.00 | 72 | 1007.4 |
| 20260506032528 | 51 | 0.0 | 1.0 | 0.00 | 0.00 | 0.00 | 71 | 1007.5 | |
| 20260506032027 | 52 | 0.0 | 1.0 | 0.00 | 0.00 | 0.00 | 71 | 1007.5 | |
| 20260506031525 | 52 | 118 | 0.0 | 2.0 | 0.00 | 0.00 | 0.00 | 70 | 1007.6 |
| 20260506031024 | 53 | 127 | 0.0 | 2.0 | 0.00 | 0.00 | 0.00 | 68 | 1007.4 |
| 20260506030522 | 54 | 132 | 0.0 | 2.0 | 0.00 | 0.00 | 0.00 | 66 | 1007.5 |
| 20260506030022 | 54 | 146 | 1.0 | 2.0 | 0.00 | 0.00 | 0.00 | 65 | 1007.5 |
| 20260506025519 | 54 | 163 | 1.0 | 2.0 | 0.00 | 0.00 | 0.00 | 64 | 1007.5 |
| 20260506025018 | 55 | 166 | 1.0 | 4.0 | 0.00 | 0.00 | 0.00 | 63 | 1007.6 |
| 20260506024518 | 55 | 186 | 1.0 | 3.0 | 0.00 | 0.00 | 0.00 | 62 | 1007.6 |
| 20260506024037 | 55 | 166 | 1.0 | 2.0 | 0.00 | 0.00 | 0.00 | 63 | 1007.5 |
| 20260506023533 | 55 | 166 | 1.0 | 3.0 | 0.00 | 0.00 | 0.00 | 62 | 1007.6 |
| 20260506023033 | 55 | 186 | 1.0 | 3.0 | 0.00 | 0.00 | 0.00 | 62 | 1007.6 |
| 20260506022531 | 55 | 174 | 2.0 | 5.0 | 0.00 | 0.00 | 0.00 | 63 | 1007.6 |
| 20260506022029 | 55 | 176 | 1.0 | 3.0 | 0.00 | 0.00 | 0.00 | 64 | 1007.7 |
| 20260506021528 | 55 | 182 | 1.0 | 2.0 | 0.00 | 0.00 | 0.00 | 62 | 1007.7 |
| 20260506021027 | 55 | 209 | 0.0 | 2.0 | 0.00 | 0.00 | 0.00 | 61 | 1007.6 |
| 20260506020525 | 55 | 186 | 1.0 | 2.0 | 0.00 | 0.00 | 0.00 | 62 | 1007.7 |
| 20260506020023 | 56 | 172 | 0.0 | 3.0 | 0.00 | 0.00 | 0.00 | 61 | 1007.8 |
| 20260506015523 | 56 | 213 | 1.0 | 2.0 | 0.00 | 0.00 | 0.00 | 60 | 1007.8 |
| 20260506015022 | 56 | 219 | 1.0 | 3.0 | 0.00 | 0.00 | 0.00 | 60 | 1007.8 |
| 20260506014519 | 56 | 197 | 1.0 | 3.0 | 0.00 | 0.00 | 0.00 | 60 | 1007.8 |
| 20260506014019 | 56 | 197 | 1.0 | 3.0 | 0.00 | 0.00 | 0.00 | 60 | 1007.9 |
| 20260506013516 | 56 | 210 | 1.0 | 3.0 | 0.00 | 0.00 | 0.00 | 60 | 1007.8 |
| 20260506013034 | 56 | 194 | 0.0 | 2.0 | 0.00 | 0.00 | 0.00 | 60 | 1007.8 |
| 20260506012533 | 57 | 216 | 1.0 | 4.0 | 0.00 | 0.00 | 0.00 | 60 | 1007.8 |
| 20260506012032 | 56 | 209 | 1.0 | 3.0 | 0.00 | 0.00 | 0.00 | 60 | 1007.7 |
| 20260506011530 | 56 | 198 | 1.0 | 2.0 | 0.00 | 0.00 | 0.00 | 61 | 1007.8 |
| 20260506011029 | 56 | 201 | 1.0 | 3.0 | 0.00 | 0.00 | 0.00 | 60 | 1007.7 |
| 20260506010528 | 56 | 216 | 1.0 | 3.0 | 0.00 | 0.00 | 0.00 | 61 | 1007.7 |
| 20260506010026 | 57 | 200 | 1.0 | 3.0 | 0.00 | 0.00 | 0.00 | 60 | 1007.7 |
| 20260506005524 | 57 | 205 | 1.0 | 3.0 | 0.00 | 0.00 | 0.00 | 59 | 1007.6 |
| 20260506005023 | 57 | 195 | 1.0 | 3.0 | 0.00 | 0.00 | 0.00 | 60 | 1007.6 |
| 20260506004523 | 57 | 229 | 0.0 | 2.0 | 0.00 | 0.00 | 0.00 | 59 | 1007.7 |
| 20260506004020 | 57 | 201 | 1.0 | 2.0 | 0.00 | 0.00 | 0.00 | 59 | 1007.6 |
| 20260506003518 | 57 | 207 | 0.0 | 3.0 | 0.00 | 0.00 | 0.00 | 59 | 1007.7 |
| 20260506003018 | 57 | 198 | 1.0 | 3.0 | 0.00 | 0.00 | 0.00 | 58 | 1007.8 |
| 20260506002515 | 57 | 205 | 1.0 | 4.0 | 0.00 | 0.00 | 0.00 | 58 | 1007.6 |
| 20260506002034 | 57 | 216 | 1.0 | 3.0 | 0.00 | 0.00 | 0.00 | 58 | 1007.7 |
| 20260506001532 | 57 | 209 | 1.0 | 2.0 | 0.00 | 0.00 | 0.00 | 58 | 1007.7 |
| 20260506001032 | 57 | 203 | 1.0 | 2.0 | 0.00 | 0.00 | 0.00 | 58 | 1007.7 |
| 20260506000529 | 57 | 211 | 1.0 | 2.0 | 0.00 | 0.00 | 0.00 | 59 | 1007.6 |
| 20260506000029 | 57 | 199 | 0.0 | 2.0 | 0.00 | 0.00 | 0.00 | 59 | 1007.7 |
| 20260505235528 | 57 | 205 | 1.0 | 3.0 | 0.00 | 0.00 | 0.00 | 58 | 1007.7 |
| 20260505235027 | 58 | 204 | 1.0 | 5.0 | 0.00 | 0.00 | 0.00 | 58 | 1007.8 |
| 20260505234524 | 58 | 200 | 1.0 | 3.0 | 0.00 | 0.00 | 0.00 | 57 | 1007.8 |
| 20260505234023 | 58 | 215 | 1.0 | 3.0 | 0.00 | 0.00 | 0.00 | 57 | 1007.7 |
| 20260505233522 | 58 | 206 | 2.0 | 3.0 | 0.00 | 0.00 | 0.00 | 57 | 1007.7 |
| 20260505233019 | 57 | 212 | 1.0 | 3.0 | 0.00 | 0.00 | 0.00 | 58 | 1007.7 |
| 20260505232518 | 57 | 208 | 1.0 | 2.0 | 0.00 | 0.00 | 0.00 | 58 | 1007.7 |
| 20260505232018 | 56 | 208 | 1.0 | 2.0 | 0.00 | 0.00 | 0.00 | 60 | 1007.7 |
| 20260505231535 | 55 | 200 | 0.0 | 2.0 | 0.00 | 0.00 | 0.00 | 62 | 1007.9 |
| 20260505231033 | 56 | 150 | 1.0 | 2.0 | 0.00 | 0.00 | 0.00 | 61 | 1007.8 |
| 20260505230534 | 57 | 169 | 0.0 | 2.0 | 0.00 | 0.00 | 0.00 | 59 | 1007.7 |
| 20260505230030 | 57 | 188 | 0.0 | 2.0 | 0.00 | 0.00 | 0.00 | 58 | 1007.7 |
| 20260505225531 | 58 | 158 | 1.0 | 2.0 | 0.00 | 0.00 | 0.00 | 56 | 1007.7 |
| 20260505225028 | 59 | 195 | 1.0 | 3.0 | 0.00 | 0.00 | 0.00 | 55 | 1007.8 |
| 20260505224526 | 59 | 193 | 0.0 | 2.0 | 0.00 | 0.00 | 0.00 | 54 | 1007.8 |
| 20260505224025 | 60 | 212 | 1.0 | 2.0 | 0.00 | 0.00 | 0.00 | 53 | 1007.8 |
| 20260505223524 | 60 | 223 | 1.0 | 3.0 | 0.00 | 0.00 | 0.00 | 52 | 1007.7 |
| 20260505223022 | 60 | 203 | 1.0 | 3.0 | 0.00 | 0.00 | 0.00 | 52 | 1007.8 |
| 20260505222520 | 61 | 211 | 1.0 | 2.0 | 0.00 | 0.00 | 0.00 | 52 | 1007.7 |
| 20260505222020 | 61 | 201 | 1.0 | 2.0 | 0.00 | 0.00 | 0.00 | 51 | 1007.7 |
| 20260505221517 | 62 | 195 | 1.0 | 4.0 | 0.00 | 0.00 | 0.00 | 50 | 1007.8 |
| 20260505221016 | 62 | 208 | 1.0 | 4.0 | 0.00 | 0.00 | 0.00 | 50 | 1007.8 |
| 20260505220535 | 62 | 191 | 1.0 | 3.0 | 0.00 | 0.00 | 0.00 | 49 | 1007.8 |
| 20260505220033 | 63 | 203 | 2.0 | 4.0 | 0.00 | 0.00 | 0.00 | 49 | 1007.8 |
| 20260505215532 | 63 | 215 | 2.0 | 4.0 | 0.00 | 0.00 | 0.00 | 48 | 1007.8 |
| 20260505215030 | 63 | 216 | 3.0 | 5.0 | 0.00 | 0.00 | 0.00 | 47 | 1007.8 |
| 20260505214529 | 63 | 209 | 1.0 | 4.0 | 0.00 | 0.00 | 0.00 | 48 | 1007.8 |
| 20260505214027 | 64 | 199 | 2.0 | 4.0 | 0.00 | 0.00 | 0.00 | 47 | 1007.8 |
| 20260505213526 | 64 | 199 | 2.0 | 5.0 | 0.00 | 0.00 | 0.00 | 47 | 1007.7 |
| 20260505213026 | 64 | 189 | 2.0 | 4.0 | 0.00 | 0.00 | 0.00 | 47 | 1007.8 |
| 20260505212524 | 64 | 192 | 2.0 | 5.0 | 0.00 | 0.00 | 0.00 | 46 | 1007.7 |
| 20260505212023 | 64 | 194 | 2.0 | 4.0 | 0.00 | 0.00 | 0.00 | 46 | 1007.7 |
| 20260505211520 | 65 | 204 | 2.0 | 5.0 | 0.00 | 0.00 | 0.00 | 46 | 1007.7 |
| 20260505211020 | 65 | 195 | 3.0 | 5.0 | 0.00 | 0.00 | 0.00 | 46 | 1007.7 |
| 20260505210518 | 65 | 198 | 1.0 | 3.0 | 0.00 | 0.00 | 0.00 | 46 | 1007.6 |
| 20260505210016 | 65 | 199 | 2.0 | 4.0 | 0.00 | 0.00 | 0.00 | 45 | 1007.6 |
| 20260505205534 | 65 | 204 | 2.0 | 4.0 | 0.00 | 0.00 | 0.00 | 45 | 1007.6 |
| 20260505205033 | 66 | 187 | 2.0 | 4.0 | 0.00 | 0.00 | 0.00 | 45 | 1007.6 |
| 20260505204531 | 66 | 201 | 2.0 | 4.0 | 0.00 | 0.00 | 0.00 | 45 | 1007.6 |
| 20260505204030 | 66 | 201 | 2.0 | 7.0 | 0.00 | 0.00 | 0.00 | 44 | 1007.6 |
| 20260505203529 | 66 | 217 | 2.0 | 5.0 | 0.00 | 0.00 | 0.00 | 44 | 1007.7 |
| 20260505203027 | 66 | 197 | 2.0 | 4.0 | 0.00 | 0.00 | 0.00 | 44 | 1007.6 |
| 20260505202526 | 66 | 194 | 2.0 | 4.0 | 0.00 | 0.00 | 0.00 | 45 | 1007.6 |
| 20260505202025 | 67 | 196 | 2.0 | 5.0 | 0.00 | 0.00 | 0.00 | 44 | 1007.6 |
| 20260505201527 | 67 | 191 | 3.0 | 5.0 | 0.00 | 0.00 | 0.00 | 44 | 1007.6 |
| 20260505201022 | 67 | 195 | 2.0 | 5.0 | 0.00 | 0.00 | 0.00 | 44 | 1007.6 |
| 20260505200520 | 66 | 192 | 2.0 | 6.0 | 0.00 | 0.00 | 0.00 | 45 | 1007.6 |
| 20260505200018 | 66 | 204 | 2.0 | 4.0 | 0.00 | 0.00 | 0.00 | 45 | 1007.6 |
| 20260505195516 | 65 | 200 | 2.0 | 5.0 | 0.00 | 0.00 | 0.00 | 47 | 1007.5 |
| 20260505195035 | 63 | 190 | 2.0 | 4.0 | 0.00 | 0.00 | 0.00 | 50 | 1007.5 |
| 20260505194533 | 61 | 179 | 1.0 | 3.0 | 0.00 | 0.00 | 0.00 | 55 | 1007.4 |
| 20260505194032 | 61 | 167 | 1.0 | 2.0 | 0.00 | 0.00 | 0.00 | 57 | 1007.5 |
| 20260505193531 | 61 | 151 | 0.0 | 1.0 | 0.00 | 0.00 | 0.00 | 56 | 1007.5 |
| 20260505193029 | 62 | 137 | 0.0 | 1.0 | 0.00 | 0.00 | 0.00 | 55 | 1007.6 |
| 20260505192527 | 63 | 145 | 0.0 | 2.0 | 0.00 | 0.00 | 0.00 | 55 | 1007.5 |
| 20260505192026 | 63 | 157 | 0.0 | 2.0 | 0.00 | 0.00 | 0.00 | 52 | 1007.4 |
| 20260505191525 | 63 | 172 | 0.0 | 2.0 | 0.00 | 0.00 | 0.00 | 54 | 1007.4 |
| 20260505191023 | 63 | 145 | 1.0 | 2.0 | 0.00 | 0.00 | 0.00 | 59 | 1007.4 |
| 20260505190523 | 64 | 0.0 | 1.0 | 0.00 | 0.00 | 0.00 | 48 | 1007.4 | |
| 20260505190020 | 65 | 173 | 0.0 | 2.0 | 0.00 | 0.00 | 0.00 | 48 | 1007.4 |
| 20260505185519 | 64 | 0.0 | 1.0 | 0.00 | 0.00 | 0.00 | 49 | 1007.4 | |
| 20260505185017 | 63 | 0.0 | 0.0 | 0.00 | 0.00 | 0.00 | 57 | 1007.5 | |
| 20260505184516 | 64 | 155 | 0.0 | 1.0 | 0.00 | 0.00 | 0.00 | 53 | 1007.4 |
| 20260505184035 | 64 | 0.0 | 0.0 | 0.00 | 0.00 | 0.00 | 49 | 1007.5 | |
| 20260505183533 | 64 | 152 | 0.0 | 1.0 | 0.00 | 0.00 | 0.00 | 48 | 1007.5 |
| 20260505183032 | 65 | 164 | 0.0 | 1.0 | 0.00 | 0.00 | 0.00 | 48 | 1007.4 |
| 20260505182530 | 65 | 0.0 | 1.0 | 0.00 | 0.00 | 0.00 | 47 | 1007.4 | |
| 20260505182029 | 66 | 0.0 | 2.0 | 0.00 | 0.00 | 0.00 | 45 | 1007.4 | |
| 20260505181527 | 67 | 0.0 | 0.0 | 0.00 | 0.00 | 0.00 | 44 | 1007.5 | |
| 20260505181026 | 68 | 0.0 | 0.0 | 0.00 | 0.00 | 0.00 | 44 | 1007.5 | |
| 20260505180524 | 69 | 0.0 | 1.0 | 0.00 | 0.00 | 0.00 | 43 | 1007.4 | |
| 20260505180023 | 70 | 0.0 | 0.0 | 0.00 | 0.00 | 0.00 | 40 | 1007.5 | |
| 20260505175521 | 71 | 0.0 | 0.0 | 0.00 | 0.00 | 0.00 | 39 | 1007.6 | |
| 20260505175020 | 71 | 0.0 | 1.0 | 0.00 | 0.00 | 0.00 | 38 | 1007.4 | |
| 20260505174518 | 71 | 228 | 0.0 | 1.0 | 0.00 | 0.00 | 0.00 | 38 | 1007.4 |
| 20260505174017 | 72 | 233 | 0.0 | 1.0 | 0.00 | 0.00 | 0.00 | 37 | 1007.4 |
| 20260505173516 | 72 | 0.0 | 1.0 | 0.00 | 0.00 | 0.00 | 37 | 1007.3 | |
| 20260505173034 | 71 | 0.0 | 1.0 | 0.00 | 0.00 | 0.00 | 37 | 1007.5 | |
| 20260505172533 | 71 | 230 | 0.0 | 1.0 | 0.00 | 0.00 | 0.00 | 36 | 1007.4 |
| 20260505172032 | 71 | 0.0 | 1.0 | 0.00 | 0.00 | 0.00 | 38 | 1007.5 | |
| 20260505171530 | 72 | 0.0 | 0.0 | 0.00 | 0.00 | 0.00 | 38 | 1007.5 | |
| 20260505171030 | 73 | 0.0 | 0.0 | 0.00 | 0.00 | 0.00 | 37 | 1007.5 | |
| 20260505170528 | 73 | 0.0 | 0.0 | 0.00 | 0.00 | 0.00 | 37 | 1007.5 | |
| 20260505170025 | 73 | 278 | 0.0 | 1.0 | 0.00 | 0.00 | 0.00 | 34 | 1007.5 |
| 20260505165524 | 73 | 0.0 | 1.0 | 0.00 | 0.00 | 0.00 | 36 | 1007.4 | |
| 20260505165022 | 74 | 0.0 | 0.0 | 0.00 | 0.00 | 0.00 | 38 | 1007.6 | |
| 20260505164521 | 74 | 0.0 | 0.0 | 0.00 | 0.00 | 0.00 | 37 | 1007.6 | |
| 20260505164019 | 75 | 0.0 | 0.0 | 0.00 | 0.00 | 0.00 | 36 | 1007.7 | |
| 20260505163518 | 75 | 0.0 | 0.0 | 0.00 | 0.00 | 0.00 | 33 | 1007.7 | |
| 20260505163017 | 76 | 0.0 | 1.0 | 0.00 | 0.00 | 0.00 | 31 | 1007.7 | |
| 20260505162535 | 76 | 229 | 0.0 | 1.0 | 0.00 | 0.00 | 0.00 | 30 | 1007.8 |
| 20260505162035 | 76 | 209 | 0.0 | 2.0 | 0.00 | 0.00 | 0.00 | 30 | 1007.8 |
| 20260505161532 | 76 | 197 | 0.0 | 2.0 | 0.00 | 0.00 | 0.00 | 29 | 1007.8 |
| 20260505161031 | 77 | 176 | 0.0 | 2.0 | 0.00 | 0.00 | 0.00 | 29 | 1007.8 |
| 20260505160529 | 77 | 194 | 1.0 | 2.0 | 0.00 | 0.00 | 0.00 | 28 | 1007.9 |
| 20260505153019 | 80 | 182 | 3.0 | 6.0 | 0.00 | 0.00 | 0.00 | 25 | 1008.2 |
| 20260505152518 | 79 | 197 | 3.0 | 7.0 | 0.00 | 0.00 | 0.00 | 25 | 1008.2 |
| 20260505152016 | 79 | 186 | 4.0 | 9.0 | 0.00 | 0.00 | 0.00 | 25 | 1008.3 |
| 20260505151536 | 78 | 178 | 3.0 | 5.0 | 0.00 | 0.00 | 0.00 | 25 | 1008.3 |
| 20260505151033 | 78 | 196 | 3.0 | 6.0 | 0.00 | 0.00 | 0.00 | 25 | 1008.2 |
| 20260505150532 | 78 | 183 | 4.0 | 8.0 | 0.00 | 0.00 | 0.00 | 25 | 1008.3 |
| 20260505140534 | 80 | 175 | 6.0 | 11.0 | 0.00 | 0.00 | 0.00 | 24 | 1008.9 |